#timestamp,LO_Frequency,Hit,StdDev 
1558162815.7,286046998.0,P
1558162835.5,286046997.8,N
1558162855.3,286046999.9,N
1558162875.2,286047000.3,N
1558162895.0,286047000.0,N
1558162895.9,286047000.0,N
1558162915.7,286046999.8,N
1558162935.6,286046996.8,N
1558162955.4,286046995.3,N
1558162975.2,286046993.7,Y
1558162995.1,286046996.0,P
1558162996.0,286046996.0,P
1558163015.8,286046998.0,N
1558163035.6,286046999.2,N
1558163055.5,286047012.3,Y
1558163075.3,286047015.0,P
1558163095.1,286047011.6,N
1558163115.9,286047014.0,N
1558163135.7,286047018.4,N
1558163155.5,286047015.1,N
1558163175.4,286047032.3,Y
1558163195.2,286047019.7,P
1558163215.0,286047015.5,P
1558163215.9,286047015.5,P
1558163235.8,286047012.3,Y
1558163255.6,286047002.8,P
1558163275.4,286047004.2,N
1558163295.3,286046998.7,N
1558163315.1,286046997.8,N
1558163316.0,286046997.8,N
1558163335.8,286046992.0,N
1558163355.7,286046990.9,N
1558163375.5,286046989.1,N
1558163395.3,286046988.0,N
1558163415.1,286046984.2,N
1558163435.9,286046980.5,N
1558163455.7,286046983.1,N
1558163475.5,286046982.7,N
1558163495.4,286046981.9,N
1558163515.2,286046984.9,N
1558163535.0,286046992.2,N
1558163535.9,286046992.2,N
1558163555.8,286047018.5,N
1558163575.6,286047038.5,Y
1558163595.4,286047033.3,P
1558163615.3,286047026.5,N
1558163635.1,286047022.9,N
1558163636.0,286047022.9,N
1558163655.8,286047042.7,Y
1558163675.7,286047032.0,P
1558163695.5,286047028.8,P
1558163715.3,286047024.7,P
1558163735.2,286047026.7,Y
1558163755.9,286046998.5,P
1558163775.7,286046998.1,N
1558163795.6,286046999.8,N
1558163815.4,286047001.6,N
1558163835.2,286047004.5,N
1558163855.0,286047008.8,N
1558163855.9,286047008.8,N
1558163875.8,286047011.2,N
1558163895.6,286047023.6,N
1558163915.4,286047030.6,Y
1558163935.3,286047029.9,P
1558163955.1,286047034.6,P
1558163975.8,286047037.6,P
1558163995.7,286047032.3,N
1558164015.5,286047034.0,Y
1558164035.3,286047003.5,P
1558164055.2,286047002.9,N
1558164075.0,286047010.1,N
1558164075.9,286047010.1,N
1558164095.7,286047008.2,N
1558164115.6,286047018.0,N
1558164135.4,286047023.0,N
1558164155.2,286047022.2,N
1558164175.1,286047028.4,Y
1558164176.0,286047028.4,P
1558164195.8,286047011.1,N
1558164215.6,286047011.1,N
1558164235.5,286047014.3,N
1558164255.3,286047017.7,N
1558164275.1,286047023.0,Y
1558164295.9,286047008.2,P
1558164315.7,286047009.6,N
1558164335.5,286047012.4,P
1558164355.4,286047014.0,Y
1558164375.2,286047002.3,P
1558164395.0,286047005.6,N
1558164395.9,286047005.6,N
1558164415.8,286047005.7,N
1558164435.6,286047003.4,N
1558164455.4,286047001.4,N
1558164475.2,286047002.0,N
1558164495.1,286047004.7,N
1558164496.0,286047004.7,N
1558164515.8,286047006.0,N
1558164535.6,286047007.3,N
1558164555.5,286047006.8,N
1558164575.3,286047007.9,Y
1558164595.1,286047004.9,P
1558164615.9,286047004.9,P
1558164635.7,286047007.6,P
1558164655.5,286047007.1,Y
1558164675.4,286047000.1,P
1558164695.2,286047000.6,N
1558164715.0,286047000.3,N
1558164715.9,286047000.3,N
1558164735.8,286046999.4,N
1558164755.6,286047000.9,N
1558164775.4,286046998.5,N
1558164795.3,286047002.1,N
1558164815.1,286047001.1,N
1558164816.0,286047001.1,N
1558164835.8,286046996.5,N
1558164855.7,286046995.9,N
1558164875.5,286046996.3,N
1558164895.3,286046993.4,N
1558164915.1,286046992.9,N
1558164935.9,286046991.4,N
1558164955.7,286046990.4,N
1558164975.5,286046987.1,Y
1558164995.4,286046988.2,P
1558165015.2,286046988.3,N
1558165035.0,286046989.2,N
1558165035.9,286046989.2,N
1558165055.8,286046993.3,N
1558165075.6,286046992.7,N
1558165095.4,286046992.3,N
1558165115.3,286046994.2,N
1558165135.1,286046994.4,N
1558165136.0,286046994.4,N
1558165155.8,286046994.1,N
1558165175.7,286046993.7,N
1558165195.5,286046994.6,N
1558165215.3,286046992.9,N
1558165235.1,286046992.4,N
1558165255.9,286046992.6,N
1558165275.7,286046992.2,Y
1558165295.5,286046998.1,P
1558165315.4,286046998.1,N
1558165335.2,286047000.8,N
1558165355.0,286046999.7,N
1558165355.9,286046999.7,N
1558165375.8,286047000.3,N
1558165395.6,286046998.2,N
1558165415.4,286046998.6,N
1558165435.3,286046998.2,N
1558165455.1,286046999.3,N
1558165456.0,286046999.3,N
1558165475.8,286046994.9,N
1558165495.7,286046994.4,N
1558165515.5,286046995.1,N
1558165535.3,286046994.1,N
1558165555.1,286046995.8,N
1558165575.9,286046994.0,N
1558165595.7,286046992.9,N
1558165615.5,286046991.8,Y
1558165635.4,286046993.7,P
1558165655.2,286046992.1,P
1558165675.0,286046990.3,P
1558165675.9,286046990.3,Y
1558165695.8,286046995.0,P
1558165715.6,286046993.6,P
1558165735.4,286046992.6,P
1558165755.3,286046992.4,Y
1558165775.1,286046997.1,P
1558165795.8,286046998.7,N
1558165815.7,286046998.5,N
1558165835.5,286046996.9,N
1558165855.3,286046995.0,N
1558165875.2,286046999.0,N
1558165895.9,286046995.7,N
1558165915.7,286046995.1,N
1558165935.6,286046997.0,N
1558165955.4,286046996.1,N
1558165975.2,286046996.2,N
1558165995.1,286046994.5,Y
1558165996.0,286046994.5,P
1558166015.8,286046997.6,N
1558166035.6,286046997.8,N
1558166055.4,286046997.2,N
1558166075.3,286046997.3,N
1558166095.1,286046995.1,Y
1558166115.8,286046998.4,P
1558166135.7,286046999.3,N
1558166155.5,286046999.2,N
1558166175.3,286046996.7,Y
1558166195.2,286046996.7,P
1558166215.0,286046994.9,P
1558166215.9,286046994.9,P
1558166235.7,286046995.9,N
1558166255.6,286046996.1,N
1558166275.4,286046993.4,Y
1558166295.2,286046993.3,P
1558166315.1,286046993.8,P
1558166316.0,286046993.8,P
1558166335.8,286046994.7,Y
1558166355.6,286046999.4,P
1558166375.5,286046995.5,N
1558166395.3,286046996.2,N
